• Join FlightAware (Why Join?)
  • Login
  • US Flag 
02:51PM EDT


 

Airport Tracker/Info


-or-


 

Live Flight TrackerFlight Track Log ✈ SWA1044 ✈ 10-Apr-2013 ✈ KMSY - KLAS

Flight Track Log - Related Links

Times and Time Zones

All times are in EDT time to prevent confusion due to time zone crossing. See the SWA1044 flight status page for this flight to view local times or setup timezone preferences in your user account.

Time Position Orientation Groundspeed Altitude Reporting Facility
EDT Latitude Longitude Course Direction KTS MPH feet Rate Location/Type
12:24PM 29.9483 -90.3006 230° Southwest 230 265 3,400  Level Houston Center
12:24PM 29.9492 -90.3189 273° West 266 306 4,100 3,600 Climbing Houston Center
12:25PM 29.9444 -90.3872 265° West 287 330 7,100 3,540 Climbing Houston Center
12:26PM 29.9456 -90.4058 274° West 266 306 7,800 2,400 Climbing Houston Center
12:27PM 29.9358 -90.4992 263° West 280 322 10,300 2,040 Climbing Houston Center
12:28PM 29.9200 -90.6153 261° West 345 397 12,100 2,460 Climbing Houston Center
12:29PM 29.9064 -90.7394 263° West 386 444 15,500 3,180 Climbing Houston Center
12:30PM 29.8928 -90.8900 264° West 395 455 18,800 2,640 Climbing Houston Center
12:31PM 29.8800 -91.0225 264° West 404 465 21,000 2,220 Climbing Houston Center
12:32PM 29.8639 -91.1592 262° West 419 482 23,400 2,220 Climbing Houston Center
12:33PM 29.8664 -91.2972 271° West 437 503 25,700 1,980 Climbing Houston Center
12:34PM 29.8839 -91.4367 278° West 441 507 27,600 2,280 Climbing Houston Center
12:35PM 29.9008 -91.6033 277° West 439 505 30,500 2,400 Climbing Houston Center
12:36PM 29.9144 -91.7403 277° West 430 495 32,600 2,400 Climbing Houston Center
12:37PM 29.9283 -91.8717 277° West 418 481 35,600 2,580 Climbing Houston Center
12:38PM 29.9403 -91.9783 277° West 349 402 38,000 1,140 Climbing Houston Center
12:39PM 29.9506 -92.0853 276° West 336 387 38,000  Level Houston Center
12:40PM 29.9619 -92.1928 277° West 338 389 38,000  Level Houston Center
12:41PM 29.9756 -92.3225 277° West 339 390 38,000  Level Houston Center
12:42PM 29.9853 -92.4314 276° West 340 391 38,000  Level Houston Center
12:43PM 29.9972 -92.5397 277° West 340 391 38,000  Level Houston Center
12:44PM 30.0075 -92.6489 276° West 344 396 38,000  Level Houston Center
12:45PM 30.0183 -92.7569 277° West 341 392 38,000  Level Houston Center
12:46PM 30.0289 -92.8642 277° West 337 388 38,000  Level Houston Center
12:47PM 30.0406 -92.9933 276° West 338 389 38,000  Level Houston Center
12:48PM 30.0514 -93.1006 277° West 337 388 38,000  Level Houston Center
12:49PM 30.0611 -93.2089 276° West 338 389 38,000  Level Houston Center
12:50PM 30.0717 -93.3178 276° West 340 391 38,000  Level Houston Center
12:51PM 30.0825 -93.4272 277° West 343 395 38,000  Level Houston Center
12:53PM 30.0947 -93.5692 276° West 341 392 38,000  Level Houston Center
12:54PM 30.1047 -93.6772 276° West 340 391 38,000  Level Houston Center
12:55PM 30.1144 -93.7850 276° West 339 390 38,000  Level Houston Center
12:56PM 30.1233 -93.8914 276° West 335 386 38,000  Level Houston Center
12:57PM 30.1353 -94.0189 276° West 335 386 38,000  Level Houston Center
12:58PM 30.1444 -94.1253 276° West 334 384 38,000  Level Houston Center
12:59PM 30.1547 -94.2319 276° West 335 386 38,000  Level Houston Center
01:00PM 30.1639 -94.3408 276° West 341 392 38,000  Level Houston Center
01:01PM 30.1731 -94.4486 276° West 339 390 38,000  Level Houston Center
01:02PM 30.1844 -94.5792 276° West 341 392 38,000  Level Houston Center
01:03PM 30.1933 -94.6869 275° West 340 391 38,000  Level Houston Center
01:04PM 30.2006 -94.7939 274° West 337 388 38,000  Level Houston Center
01:05PM 30.2089 -94.9028 275° West 341 392 38,000  Level Houston Center
01:06PM 30.2178 -95.0100 276° West 339 390 38,000  Level Houston Center
01:07PM 30.2269 -95.1381 275° West 336 387 38,000  Level Houston Center
01:08PM 30.2342 -95.2447 275° West 335 386 38,000  Level Houston Center
01:09PM 30.2414 -95.3506 275° West 333 383 38,000  Level Houston Center
01:10PM 30.2492 -95.4581 275° West 336 387 38,000  Level Houston Center
01:11PM 30.2569 -95.5661 275° West 338 389 38,000  Level Houston Center
01:12PM 30.2650 -95.6942 274° West 335 386 38,000  Level Houston Center
01:13PM 30.2728 -95.8019 275° West 336 387 38,000  Level Houston Center
01:14PM 30.2786 -95.9081 274° West 334 384 38,000  Level Houston Center
01:15PM 30.2858 -96.0144 275° West 333 383 38,000  Level Houston Center
01:16PM 30.2939 -96.1317 275° West 332 382 38,000  Level Houston Center
01:18PM 30.3003 -96.2394 274° West 332 382 38,000  Level Houston Center
01:19PM 30.3075 -96.3469 274° West 331 381 38,000  Level Houston Center
01:20PM 30.3144 -96.4556 274° West 334 384 38,000  Level Houston Center
01:21PM 30.3208 -96.5622 274° West 330 380 38,000  Level Houston Center
01:22PM 30.3269 -96.6711 274° West 333 383 38,000  Level Houston Center
01:23PM 30.3347 -96.7958 274° West 330 380 38,000  Level Houston Center
01:24PM 30.3408 -96.9033 274° West 330 380 38,000  Level Houston Center
01:25PM 30.3486 -97.0092 275° West 328 377 38,000  Level Houston Center
01:26PM 30.3539 -97.1150 273° West 326 375 38,000  Level Houston Center
01:27PM 30.3600 -97.2194 274° West 322 371 38,000  Level Houston Center
01:28PM 30.3664 -97.3250 274° West 325 374 38,000  Level Houston Center
01:29PM 30.3725 -97.4294 274° West 323 372 38,000  Level Houston Center
01:30PM 30.3781 -97.5364 273° West 327 376 38,000  Level Houston Center
01:31PM 30.3925 -97.6625 278° West 334 384 38,000  Level Houston Center
01:32PM 30.4206 -97.7686 287° West 339 390 38,000  Level Houston Center
01:33PM 30.4469 -97.8769 286° West 343 395 38,000  Level Houston Center
01:34PM 30.4739 -97.9833 286° West 343 395 38,000  Level Houston Center
01:35PM 30.4994 -98.0914 285° West 344 396 38,000  Level Houston Center
01:36PM 30.5269 -98.1994 286° West 345 397 38,000  Level Houston Center
01:37PM 30.5542 -98.3086 286° West 348 400 38,000  Level Houston Center
01:38PM 30.5811 -98.4183 286° West 350 403 38,000  Level Houston Center
01:39PM 30.6125 -98.5472 286° West 352 405 38,000  Level Houston Center
01:40PM 30.6392 -98.6592 286° West 355 409 38,000  Level Houston Center
01:41PM 30.6653 -98.7714 285° West 357 411 38,000  Level Houston Center
01:42PM 30.6936 -98.8819 287° West 355 409 38,000  Level Houston Center
01:43PM 30.7192 -98.9942 285° West 356 410 38,000  Level Houston Center
01:44PM 30.7461 -99.1047 286° West 353 406 38,000  Level Houston Center
01:45PM 30.7739 -99.2214 286° West 355 409 38,000  Level Houston Center
01:46PM 30.8006 -99.3317 286° West 356 410 38,000  Level Houston Center
01:48PM 30.8267 -99.4408 286° West 352 405 38,000  Level Houston Center
01:49PM 30.8556 -99.5719 284° West 353 406 38,000  Level Houston Center
01:50PM 30.8825 -99.6842 286° West 359 413 38,000  Level Houston Center
01:51PM 30.9083 -99.7956 285° West 357 411 38,000  Level Houston Center
01:52PM 30.9356 -99.9097 286° West 367 422 38,000  Level Houston Center
01:53PM 30.9603 -100.0228 284° West 364 419 38,000  Level Houston Center
01:54PM 30.9931 -100.1631 285° West 375 432 38,000  Level Houston Center
01:55PM 31.0197 -100.2775 285° West 369 425 38,000  Level Houston Center
01:56PM 31.0472 -100.3956 285° West 377 434 38,000  Level Houston Center
01:57PM 31.0936 -100.5069 296° West 387 445 38,000  Level Houston Center
01:57PM 31.1381 -100.5756 307° West 408 470 38,000  Level Fort Worth Center
01:58PM 31.2083 -100.6800 308° West 415 478 38,000  Level Fort Worth Center
01:59PM 31.2786 -100.7869 308° West 415 478 38,000  Level Fort Worth Center
02:00PM 31.3508 -100.8942 308° West 420 483 38,000  Level Fort Worth Center
02:01PM 31.4272 -101.0042 309° West 406 467 38,000 360 Level Fort Worth Center
02:02PM 31.4992 -101.1117 308° West 406 467 38,800 720 Climbing Fort Worth Center
02:03PM 31.5711 -101.2194 308° West 416 479 39,500 600 Climbing Fort Worth Center
02:04PM 31.6469 -101.3300 309° West 421 484 40,000 240 Climbing Fort Worth Center
02:05PM 31.7228 -101.4431 308° West 432 497 40,000  Level Fort Worth Center
02:06PM 31.7944 -101.5536 307° West 432 497 40,000  Level Fort Worth Center
02:07PM 31.8658 -101.6644 307° West 432 497 40,000  Level Fort Worth Center
02:08PM 31.9392 -101.7756 308° West 426 490 40,000  Level Fort Worth Center
02:09PM 32.0125 -101.8894 307° West 431 496 40,000  Level Fort Worth Center
02:10PM 32.0856 -102.0008 308° West 431 496 40,000  Level Fort Worth Center
02:11PM 32.1525 -102.1097 306° West 423 487 40,000  Level Fort Worth Center
02:12PM 32.2256 -102.2192 308° West 423 487 40,000  Level Fort Worth Center
02:13PM 32.2944 -102.3283 307° West 423 487 40,000  Level Fort Worth Center
02:14PM 32.3650 -102.4428 306° West 428 493 40,000  Level Fort Worth Center
02:15PM 32.4283 -102.5300 311° West 433 498 40,000  Level Fort Worth Center
02:16PM 32.5044 -102.6575 305° West 433 498 40,000  Level Fort Worth Center
02:17PM 32.5792 -102.7703 308° West 428 493 40,000  Level Fort Worth Center
02:18PM 32.6514 -102.8806 308° West 428 493 40,000  Level Fort Worth Center
02:19PM 32.7239 -102.9936 307° West 428 493 40,000  Level Fort Worth Center
02:21PM 32.8336 -103.1722 306° West 430 495 40,000  Level Albuquerque Center
02:22PM 32.9211 -103.3103 307° West 434 499 40,000  Level Albuquerque Center
02:23PM 32.9922 -103.4261 306° West 435 501 40,000  Level Albuquerque Center
02:24PM 33.0644 -103.5414 307° West 435 501 40,000  Level Albuquerque Center
02:25PM 33.1369 -103.6561 307° West 434 499 40,000  Level Albuquerque Center
02:26PM 33.2228 -103.7850 309° West 443 510 40,000  Level Albuquerque Center
02:27PM 33.2992 -103.9097 306° West 436 502 40,000  Level Albuquerque Center
02:28PM 33.3700 -104.0244 306° West 432 497 40,000  Level Albuquerque Center
02:29PM 33.4444 -104.1478 306° West 428 493 40,000  Level Albuquerque Center
02:30PM 33.5133 -104.2625 306° West 427 491 40,000  Level Albuquerque Center
02:31PM 33.5883 -104.3839 307° West 424 488 40,000  Level Albuquerque Center
02:32PM 33.6572 -104.4983 306° West 425 489 40,000  Level Albuquerque Center
02:33PM 33.7272 -104.6128 306° West 426 490 40,000  Level Albuquerque Center
02:35PM 33.8028 -104.7358 306° West 427 491 40,000  Level Albuquerque Center
02:36PM 33.8733 -104.8525 306° West 432 497 40,000  Level Albuquerque Center
02:37PM 33.9500 -104.9792 306° West 437 503 40,000  Level Albuquerque Center
02:38PM 34.0200 -105.0978 305° West 435 501 40,000  Level Albuquerque Center
02:39PM 34.0939 -105.2178 307° West 442 509 40,000  Level Albuquerque Center
02:40PM 34.1650 -105.3375 306° West 439 505 40,000  Level Albuquerque Center
02:41PM 34.2358 -105.4567 306° West 435 501 40,000  Level Albuquerque Center
02:43PM 34.3756 -105.6972 305° West 435 501 40,000  Level Albuquerque Center
02:44PM 34.4239 -105.8311 294° West 433 498 40,000  Level Albuquerque Center
02:45PM 34.4808 -105.9881 294° West 432 497 40,000  Level Albuquerque Center
02:46PM 34.5044 -106.1317 281° West 432 497 40,000  Level Albuquerque Center
02:47PM 34.5281 -106.2753 281° West 436 502 40,000  Level Albuquerque Center
02:48PM 34.5556 -106.4181 283° West 436 502 40,000  Level Albuquerque Center
02:49PM 34.5817 -106.5594 283° West 431 496 40,000  Level Albuquerque Center
02:50PM 34.6075 -106.7011 283° West 429 494 40,100  Climbing Albuquerque Center
02:51PM 34.6331 -106.8456 282° West 433 498 40,000 -60 Descending Albuquerque Center
02:52PM 34.6581 -106.9931 282° West 441 507 40,000  Level Albuquerque Center
02:53PM 34.6842 -107.1397 282° West 441 507 40,000  Level Albuquerque Center
02:54PM 34.7100 -107.2850 282° West 439 505 40,000  Level Albuquerque Center
02:55PM 34.7358 -107.4311 282° West 439 505 40,000  Level Albuquerque Center
02:56PM 34.7658 -107.6064 282° West 439 505 40,000  Level Albuquerque Center
02:57PM 34.7894 -107.7508 281° West 437 503 40,000  Level Albuquerque Center
02:58PM 34.8147 -107.8961 282° West 437 503 40,000  Level Albuquerque Center
02:59PM 34.8386 -108.0392 282° West 434 499 40,000  Level Albuquerque Center
03:00PM 34.8628 -108.1825 282° West 432 497 40,000  Level Albuquerque Center
03:01PM 34.8889 -108.3408 281° West 428 493 40,000  Level Albuquerque Center
03:02PM 34.9117 -108.4756 282° West 426 490 40,000  Level Albuquerque Center
03:03PM 34.9369 -108.6336 281° West 424 488 40,000  Level Albuquerque Center
03:04PM 34.9597 -108.7708 281° West 428 493 40,000  Level Albuquerque Center
03:05PM 34.9844 -108.9297 281° West 427 491 40,000  Level Albuquerque Center
03:06PM 35.0067 -109.0656 281° West 426 490 40,000  Level Albuquerque Center
03:07PM 35.0283 -109.2039 281° West 430 495 40,000  Level Albuquerque Center
03:08PM 35.0539 -109.3636 281° West 430 495 40,000  Level Albuquerque Center
03:10PM 35.0744 -109.4997 280° West 427 491 40,000  Level Albuquerque Center
03:11PM 35.0986 -109.6592 281° West 426 490 40,000  Level Albuquerque Center
03:12PM 35.1200 -109.8006 281° West 434 499 40,000  Level Albuquerque Center
03:13PM 35.1431 -109.9411 281° West 439 505 40,000  Level Albuquerque Center
03:14PM 35.1669 -110.1011 280° West 432 497 40,000  Level Albuquerque Center
03:15PM 35.1858 -110.2375 280° West 428 493 40,000  Level Albuquerque Center
03:16PM 35.2056 -110.3967 279° West 426 490 40,000  Level Albuquerque Center
03:17PM 35.2256 -110.5333 280° West 426 490 40,000  Level Albuquerque Center
03:18PM 35.2475 -110.6931 280° West 427 491 40,000  Level Albuquerque Center
03:19PM 35.2667 -110.8322 280° West 430 495 40,000  Level Albuquerque Center
03:20PM 35.2883 -110.9703 281° West 431 496 40,000  Level Albuquerque Center
03:21PM 35.3111 -111.1250 280° West 430 495 40,000  Level Albuquerque Center
03:22PM 35.3289 -111.2578 279° West 404 465 40,000 -1,380 Level Albuquerque Center
03:23PM 35.3486 -111.4122 279° West 408 470 37,200 -3,000 Descending Albuquerque Center
03:24PM 35.3708 -111.5592 281° West 435 501 33,900 -2,520 Descending Albuquerque Center
03:25PM 35.3903 -111.7036 279° West 431 496 32,100 -1,620 Descending Albuquerque Center
03:26PM 35.4100 -111.8519 279° West 438 504 30,600 -1,080 Descending Albuquerque Center
03:27PM 35.4294 -112.0006 279° West 443 510 30,000 -300 Descending Albuquerque Center
03:28PM 35.4492 -112.1506 279° West 447 514 30,000  Level Albuquerque Center
03:29PM 35.4725 -112.3300 279° West 447 514 30,000  Level Albuquerque Center
03:29PM 35.4811 -112.3903 280° West 448 516 30,000  Level Los Angeles Center
03:31PM 35.4997 -112.5386 279° West 446 513 30,000  Level Los Angeles Center
03:32PM 35.5208 -112.6969 279° West 447 514 30,000  Level Los Angeles Center
03:33PM 35.5392 -112.8489 278° West 448 516 30,000  Level Los Angeles Center
03:34PM 35.5611 -113.0272 279° West 450 518 30,000  Level Los Angeles Center
03:35PM 35.5806 -113.1797 279° West 451 519 30,000  Level Los Angeles Center
03:36PM 35.5967 -113.3153 278° West 451 519 30,000 -1,200 Level Los Angeles Center
03:37PM 35.6194 -113.4978 279° West 452 520 27,600 -2,520 Descending Los Angeles Center
03:38PM 35.6381 -113.6456 279° West 442 509 24,800 -2,460 Descending Los Angeles Center
03:39PM 35.6581 -113.7781 281° West 398 458 22,600 -2,160 Descending Los Angeles Center
03:40PM 35.6747 -113.8981 280° West 361 415 20,400 -2,880 Descending Los Angeles Center
03:41PM 35.6925 -114.0203 280° West 363 418 16,600 -3,480 Descending Los Angeles Center
03:42PM 35.7131 -114.1728 279° West 390 449 13,300 -2,400 Descending Los Angeles Center
03:43PM 35.7294 -114.2875 280° West 368 423 12,100 -1,080 Descending Los Angeles Center
03:43PM 35.7292 -114.2950 267° West 366 421 12,000 -360 Descending Los Angeles Center
03:44PM 35.7661 -114.4022 293° West 286 329 11,600 -660 Descending Los Angeles Center
03:45PM 35.7656 -114.4992 270° West 280 322 10,700 -780 Descending Los Angeles Center
03:46PM 35.7575 -114.6094 265° West 268 308 10,000 -360 Descending Los Angeles Center
03:47PM 35.7508 -114.7103 265° West 249 287 10,000  Level Los Angeles Center
03:48PM 35.7461 -114.7778 265° West 248 285 10,000  Level Los Angeles Center
03:49PM 35.7158 -114.8578 245° Southwest 258 297 10,000  Level Los Angeles Center
03:50PM 35.6744 -114.9344 236° Southwest 265 305 10,000  Level Los Angeles Center
03:51PM 35.6353 -115.0125 238° Southwest 267 307 10,000 -420 Level Los Angeles Center
03:52PM 35.6269 -115.0939 263° West 257 296 9,200 -540 Descending Los Angeles Center
03:54PM 35.6383 -115.1900 278° West 242 278 9,000 -120 Descending Los Angeles Center
03:55PM 35.6472 -115.2717 278° West 232 267 9,000 -120 Level Los Angeles Center
03:56PM 35.7072 -115.2892 347° North 217 250 8,800 -600 Descending Los Angeles Center
03:57PM 35.7650 -115.2969 354° North 213 245 7,900 -720 Descending Los Angeles Center
03:58PM 35.8167 -115.3031 355° North 207 238 7,400 -840 Descending Los Angeles Center
03:59PM 35.8656 -115.2833 18° North 193 222 6,200 -780 Descending Los Angeles Center
04:00PM 35.9128 -115.2611 21° North 188 216 5,900 -540 Descending Los Angeles Center
04:01PM 35.9694 -115.2319 23° Northeast 182 209 5,100 -1,020 Descending Los Angeles Center
04:02PM 36.0072 -115.2094 26° Northeast 174 200 4,000 -1,080 Descending Los Angeles Center
04:03PM 36.0497 -115.1842 26° Northeast 172 198 2,900 -900 Descending Los Angeles Center
04:04PM 36.0861 -115.1636 25° Northeast 162 186 2,100 -780 Descending Los Angeles Center